Starlink 31994

operational
NORAD ID: 60588 Int'l Des: 2024-150 Owner: SPXS Country: US Constellation: starlink
LEOCIRCULAR

Über Starlink 31994

Beschreibung wird geladen...

Live-Position

3D-Globus wird geladen...

Nächste Überflüge

Höhenverlauf

Altitude vs Time

uPlot chart will show altitude changes over time

Zweizeiliger Elementsatz

1 60588U 24150F 25260.07625611 -.00002511 00000-0 -72701-4 0 9994
2 60588 53.1629 33.2106 0001610 83.3428 276.7756 15.30191391 61387
Epoch: 17. Sept. 2025 • Age: 24 hours

Aktueller Status

Höhe 478.7 km
Geschwindigkeit 7.63 km/s
Subsatellitenpunkt -11.59°S, 172.81°W
Startdatum 20. Aug. 2024
Alter 1 years
Typ internet

Technische Details

Klassifizierung Payload
Masse 730.00 kg
Trockenmasse 700.00 kg
Gesamtmasse 730.00 kg
Länge 0.30 m
Durchmesser 4.10 m
Spannweite 29.00 m
Form Box + pan
Hersteller SPXS
Bus-Typ Starlink V2M
Phasenstatus In Orbit
Besitzer/Staat SPXS/US

Große Konstellationen

Loading constellations...